1st Responders/1st Detectors/Storm Spotters Weather Summary for Jackson County, KY

Forecast Maps


Reg. NEXRAD Animation


National Fire Danger: Day 1 & 2 Map

Current NWS Watch/Warnings

SPC Convective Day 1 Outlook


Day 2 Outlook

(Click images to enlarge|Page will refresh every 5 minutes)
UK Ag. Weather Center Desktop Severe Weather Service[HERE]
Jackson County, KY Hazardous Weather Outlook Webcast
(9 AM to 9 PM Mon-Fri)
[Fast]
[Dial-up]


UKAWC 1st Detectors/1st Responders Precision Weather Forecast For JACKSON County, Kentucky
(based on the NWS County Digital Forecast)

ISSUED AT 17:00 UTC ON TUESDAY MAY 28 2024
DAY TUESDAY
EDT 3HR 2P 3P 4P 5P 6P 7P
MAX/MIN -- -- -- -- -- 76°
TEMP 74° 76° 74° 74° 72° 70°
SKY COVER 23% 32% 31% 32% 42% 28%
Clouds
DEW PT 52° 52° 54° 52° 54° 54°
RH 45% 44% 48% 45% 51% 55%
POP 12HR -- -- -- -- -- --
RAIN/SNOW (liq.equ) 0.00in -- -- -- -- --
SNOWFALL 0in -- -- -- -- --
WIND SPEED(MPH) 10 10 9 9 8 7
WIND Gust(MPH) 17 17 17 16 15 14
WIND DIR W W W W W W
DEW -- -- -- -- -- --
HeatIndex 74 76 74 74 72 70
Rain Showers -- -- -- -- -- --
Thunder Storm -- -- -- -- -- --
WIND CHILL -- -- -- -- -- --
SPRAY COND
DRY COND
LIVESTOCK HEATSTRESS 69.40 70.70 69.65 69.40 68.44 67.23



DAY WEDNESDAY THURSDAY FRIDAY FRI SATURDAY SUNDAY MONDAY
EDT 6HR 8P 9P 10P 11P MIDN 1A 2A 3A 4A 5A 6A 7A 8A 9A 10A 11A NOON 1P 2P 3P 4P 5P 6P 7P 8P 9P 10P 11P MIDN 1A 2A 5A 8A 11A 2P 5P 8P 2A 8A 2P 8P 2A 8A 2P 8P 2A 8A 2P 8P 2A 8A 2P 8P
MAX/MIN -- -- -- -- -- -- -- -- -- -- -- -- 52° -- -- -- -- -- -- -- -- -- -- 72° -- -- -- -- -- -- -- -- 49° -- -- 72° -- -- 47° 74° -- -- 49° 79° -- -- 58° 79° -- -- 58° 81° --
TEMP 68° 65° 63° 61° 59° 58° 58° 56° 54° 54° 54° 54° 56° 58° 63° 65° 68° 68° 70° 70° 72° 72° 70° 68° 67° 63° 61° 58° 56° 54° 52° 49° 52° 63° 70° 72° 67° 52° 49° 72° 68° 54° 54° 76° 72° 61° 61° 76° 74° 61° 61° 79° 76°
SKY COVER 27% 19% 31% 35% 32% 20% 28% 27% 28% 28% 27% 30% 28% 26% 25% 25% 29% 33% 37% 38% 40% 38% 37% 38% 37% 25% 21% 19% 18% 18% 18% 25% 31% 23% 20% 18% 16% 8% 2% 2% 19% 44% 53% 61% 53% 57% 58% 54% 34% 37% 47% 45% 30%
Clouds
DEW PT 54° 54° 54° 54° 54° 54° 52° 52° 52° 52° 52° 50° 52° 52° 54° 52° 52° 50° 49° 49° 49° 49° 49° 49° 50° 50° 50° 50° 50° 49° 49° 49° 49° 50° 47° 47° 49° 43° 41° 40° 47° 43° 47° 54° 58° 54° 56° 58° 61° 58° 58° 61° 63°
RH 61% 67% 74% 74% 80% 83% 83% 83% 89% 89% 89% 89% 89% 80% 70% 62% 55% 53% 48% 47% 43% 44% 49% 50% 56% 64% 69% 77% 80% 83% 89% 96% 92% 63% 43% 40% 52% 73% 73% 32% 46% 66% 74% 46% 59% 81% 84% 56% 64% 86% 90% 56% 61%
POP 12HR 10% -- -- -- -- -- -- -- -- -- -- -- 5% -- -- -- -- -- -- -- -- -- -- -- 5% -- -- -- -- -- -- -- 7% -- -- -- 1% -- 1% -- 2% -- 6% -- 28% -- 40% -- 42% -- 23% -- 39%
RAIN/SNOW (liq.equ) 0.02in -- -- -- -- -- 0.02in -- -- -- -- -- 0.00in -- -- -- -- -- 0.00in -- -- -- -- -- 0.02in -- -- -- -- -- 0.00in -- 0.00in -- 0.00in -- 0.00in 0.00in 0.00in -- -- -- -- -- -- -- -- -- -- -- -- -- --
SNOWFALL 0in -- -- -- -- -- 0in -- -- -- -- -- 0in -- -- -- -- -- 0in -- -- -- -- -- 0in -- -- -- -- -- 0in -- 0in -- 0in -- 0in 0in 0in -- -- -- -- -- -- -- -- -- -- -- -- -- --
WIND SPEED(MPH) 6 5 5 2 2 1 1 1 1 2 2 2 5 6 6 7 9 9 10 10 9 9 8 7 6 5 2 1 1 1 1 1 1 2 6 6 5 1 2 6 5 2 2 7 5 2 5 7 2 1 1 7 5
WIND DIR W W W W W W W SW W W W W W W W W W W W W NW NW NW NW NW NW NW NW NW N N N N N N N N NE E E NE E SE S S S S SW SW S S SW S
HeatIndex 68 65 63 61 59 58 58 56 54 54 54 54 56 58 63 65 68 68 70 70 72 72 70 68 67 63 61 58 56 54 52 49 52 63 70 72 67 52 49 72 68 54 54 76 72 61 61 76 74 61 61 79 76
Rain Showers -- -- -- -- -- -- -- -- -- -- -- -- -- -- -- -- -- -- -- -- -- -- -- -- -- -- -- -- -- -- -- -- -- -- -- -- -- -- -- -- -- -- -- Chance Chance Chance Chance Chance Slight Chance Slight Chance Chance Chance Chance
Thunder Storm -- -- -- -- -- -- -- -- -- -- -- -- -- -- -- -- -- -- -- -- -- -- -- -- -- -- -- -- -- -- -- -- -- -- -- -- -- -- -- -- -- -- -- Chance Chance Slight Chance Slight Chance Chance Slight Chance Slight Chance Slight Chance Chance Chance
WIND CHILL -- -- -- -- -- -- -- -- -- -- -- -- -- -- -- -- -- -- -- -- -- -- -- -- -- -- -- -- -- -- -- -- -- -- -- -- -- -- -- -- -- -- -- -- -- -- -- -- -- -- -- -- --
SPRAY COND
DRY COND
LIVESTOCK HEATSTRESS 66.03 63.87 62.40 60.69 58.98 58.07 58.07 56.26 54.29 54.29 54.29 54.29 56.17 58.09 62.31 63.70 65.72 65.62 66.80 66.74 67.86 67.93 66.86 65.47 65.02 62.17 60.62 58.10 56.31 54.45 52.41 49.22 52.30 62.15 66.49 67.64 64.84 53.01 50.46 67.06 65.27 54.90 54.69 70.89 69.02 60.77 60.81 71.84 70.99 60.83 60.88 74.11 72.31

Click on individual weather variable above in left-hand column (ie., TEMP, RH, QPF 12HR) to view state forecast maps






NWS 48 Hr. Forecast Maps,

Regional Hourly Observations For JACKSON County, Kentucky
Issued at 100 PM EDT TUE MAY 28 2024
SOUTHEAST KENTUCKY
  
CITY           SKY/WX    TMP DP  RH WIND       PRES   REMARKS
JACKSON        MOSUNNY   75  56  51 VRB6      30.00R                  
LONDON         MOSUNNY   77  56  48 W10G17    30.02S                  
SOMERSET       MOSUNNY   73  72  94 NW10G18   30.01R                  
MIDDLESBORO    MOSUNNY   77  55  45 NW8       30.03S                  
MONTICELLO     MOSUNNY   77  59  53 W10       30.05R                  


Current NOWCAST not available:
Nowcasts are not issued routinely during fair weather. Only when
precipitation or other significant weather is occuring in this county will these
forecasts be issued. Currently, there is no short term forecast in effect.


Fire Weather Forecast For JACKSON County, KY
Provided by the National Weather Service:

Issued at: Tue May 28 13:05:01 EDT 2024

418 AM EDT Tue May 28 2024

                      Today        Tonight      Wed          

Cloud Cover           Mclear       Mclear       Mclear       
Chance precip (%)     0            0            0            
Precip type           None         None         None         
Temp (24H TREND)      78 (0)       53 (-4)      75           
Rh % (24H TREND)      42 (-25)     100 (+6)     41           
20ftwnd-AM(mph)       W  5 G19                  Lgt/Var      
20ftwnd-PM(mph)       W  7 G20     Lgt/Var      NW  7 G20    
Precip duration                                              
Precip begin                                                 
Precip end                                                   
Precip amount         0.00         0.00         0.00         
LAL                   2            1            1            
Haines Index (MID)    4                         3            
Mixing hgt(ft-AGL)    8200                      7200         
Transport wnd (mph)   W 21                      W 18         
Vent rate (kt-ft)     147600                    115200       
ADI Early                                                    
ADI Late                                                     
Max LVORI Early                                              
Max LVORI Late                                               

Remarks...ADI is Atmospheric Dispersion Index by Lavdas.        
LVORI is Low Visibility Occurrence Risk Index.

SPC's Fire Weather Web Tool (Excellent!), SPC's Fire Weather Outlooks, NWS Fire Weather WEB, Fire Danger Class Map,
Keetch-Byram Drought Index, ROMAN Web, Haines Index ,
WFAS's 10-hr Dead Fuel Moist., WFAS's 100-hr Dead Fuel Moist., Probablity of Ignition, Visual blackness Map, Palmer Drought Index, HPC's Rainfall Forecast Maps


Hazardous Weather Outlook For JACKSON County, Kentucky
334 AM EDT Tue May 28 2024

 DAY ONE  Today and Tonight

No hazardous weather is expected at this time.

 DAYS TWO THROUGH SEVEN  Wednesday through Monday

No hazardous weather is expected at this time.

 SPOTTER INFORMATION STATEMENT  

Spotter activation will not be needed.

Latest JACKSON County, Kentucky Watches, Warnings and Advisories.
Additional Drought Info.: UKAWC Drought Page, Kentucky Drought Watch


7-Day Forecast For JACKSON County, KY

THIS AFTERNOON
Partly sunny. Highs in the upper 70s. West winds around 10 mph with gusts up to 20 mph.

TONIGHT
Partly cloudy. Lows in the mid 50s. West winds 5 to 10 mph.

WEDNESDAY
Partly sunny. Highs in the lower 70s. West winds 5 to 10 mph.

WEDNESDAY NIGHT
Partly cloudy in the evening, then becoming mostly clear. Lows around 50. Northwest winds 5 to 10 mph in the evening, becoming light and variable.

THURSDAY
Partly sunny. Highs in the mid 70s. North winds around 5 mph.

THURSDAY NIGHT
Mostly clear. Lows in the upper 40s.

FRIDAY
Sunny. Highs in the mid 70s.

FRIDAY NIGHT
Mostly clear in the evening, then becoming partly cloudy. Lows around 50.

SATURDAY
Partly cloudy. A chance of showers and thunderstorms in the afternoon. Highs around 80. Chance of rain 30 percent.

SATURDAY NIGHT
Partly cloudy with a chance of showers and thunderstorms. Lows in the upper 50s. Chance of rain 40 percent.

SUNDAY
Partly cloudy with a chance of showers. A slight chance of thunderstorms in the morning, then a chance of thunderstorms in the afternoon. Highs in the upper 70s. Chance of rain 40 percent.

SUNDAY NIGHT
Partly cloudy. A chance of showers and thunderstorms in the evening, then a slight chance of showers and thunderstorms overnight. Lows around 60. Chance of rain 40 percent.

MONDAY
Partly cloudy with a chance of showers. A slight chance of thunderstorms in the morning, then a chance of thunderstorms in the afternoon. Highs in the lower 80s. Chance of rain 40 percent.

Ag Weather Center, Department of Biosystems & Agricultural Engineering, University of Kentucky